When you browse on this site, cookies collect data to enhance your experience and personalize the content and advertising you see.
Visit our Privacy Policy to learn more. By continuing to use the site, you agree to this use of cookies and data.
  • In Hungary
  • List of Countries
  • For 7 days
  • Water Temperature
  • Satellite Maps
  • Weather Map
  • News
  • Weather Widgets
  • user-avatar
    Login

    Hourly Weather Kuching

    Today, 16 November, Friday

    Time Temperature Precipitation Wind Pressure Humidity
    00:00 +26°C° 0.1 mm 1 mps 756 mmHg 96%
    01:00 +26°C° 0 mm 1 mps 756 mmHg 97%
    02:00 +26°C° 0.2 mm 1 mps 756 mmHg 97%
    03:00 +26°C° 0.2 mm 1 mps 756 mmHg 97%
    04:00 +26°C° 0.2 mm 1 mps 756 mmHg 97%
    05:00 +26°C° 0.1 mm 1 mps 756 mmHg 95%
    06:00 +25°C° 0.1 mm 0 mps 757 mmHg 92%
    07:00 +28°C° 0 mm 1 mps 757 mmHg 89%
    08:00 +31°C° 0 mm 1 mps 757 mmHg 79%
    09:00 +31°C° 0 mm 0 mps 757 mmHg 69%
    10:00 +33°C° 0 mm 0 mps 757 mmHg 58%
    11:00 +34°C° 0.3 mm 1 mps 756 mmHg 63%
    12:00 +34°C° 0.3 mm 1 mps 756 mmHg 67%
    13:00 +33°C° 0 mm 1 mps 755 mmHg 77%
    14:00 +32°C° 1.2 mm 1 mps 755 mmHg 82%
    15:00 +31°C° 1.2 mm 1 mps 755 mmHg 87%
    16:00 +30°C° 1.2 mm 1 mps 754 mmHg 92%
    17:00 +29°C° 1.2 mm 1 mps 755 mmHg 93%
    18:00 +28°C° 1.2 mm 1 mps 755 mmHg 94%
    19:00 +27°C° 0 mm 1 mps 756 mmHg 95%
    20:00 +27°C° 1.7 mm 1 mps 756 mmHg 95%
    21:00 +27°C° 1.7 mm 1 mps 757 mmHg 95%
    22:00 +27°C° 1.7 mm 1 mps 757 mmHg 96%
    23:00 +27°C° 1.9 mm 1 mps 757 mmHg 96%

    Tomorrow, 17 November, Saturday

    Time Temperature Precipitation Wind Pressure Humidity
    00:00 +26°C° 1.9 mm 1 mps 757 mmHg 96%
    01:00 +26°C° 1.9 mm 1 mps 757 mmHg 97%
    02:00 +26°C° 1.4 mm 1 mps 757 mmHg 97%
    03:00 +26°C° 1.4 mm 1 mps 757 mmHg 97%
    04:00 +26°C° 1.4 mm 1 mps 757 mmHg 97%
    05:00 +26°C° 1 mm 1 mps 757 mmHg 97%
    06:00 +27°C° 1 mm 1 mps 757 mmHg 97%
    07:00 +27°C° 1 mm 1 mps 757 mmHg 96%
    08:00 +28°C° 1.1 mm 1 mps 757 mmHg 95%
    09:00 +28°C° 1.1 mm 1 mps 757 mmHg 93%
    10:00 +29°C° 1.1 mm 1 mps 757 mmHg 92%
    11:00 +29°C° 1.5 mm 1 mps 757 mmHg 92%
    12:00 +29°C° 1.5 mm 1 mps 757 mmHg 92%
    13:00 +29°C° 1.5 mm 1 mps 756 mmHg 92%
    14:00 +29°C° 1.1 mm 1 mps 756 mmHg 93%
    15:00 +28°C° 1.1 mm 1 mps 756 mmHg 94%
    16:00 +28°C° 1.1 mm 1 mps 755 mmHg 96%
    17:00 +27°C° 0.5 mm 1 mps 756 mmHg 96%
    18:00 +27°C° 0.5 mm 1 mps 756 mmHg 97%
    19:00 +26°C° 0.5 mm 1 mps 757 mmHg 98%
    20:00 +26°C° 1.1 mm 1 mps 757 mmHg 98%
    21:00 +26°C° 1.1 mm 1 mps 757 mmHg 98%
    22:00 +26°C° 1.1 mm 1 mps 758 mmHg 98%
    23:00 +26°C° 1.3 mm 1 mps 757 mmHg 98%

    Day after tomorrow, 18 November, Sunday

    Time Temperature Precipitation Wind Pressure Humidity
    00:00 +26°C° 1.3 mm 1 mps 757 mmHg 98%
    01:00 +26°C° 1.3 mm 1 mps 757 mmHg 99%
    02:00 +26°C° 1.3 mm 1 mps 757 mmHg 99%
    03:00 +26°C° 1.3 mm 1 mps 756 mmHg 99%
    04:00 +25°C° 1.3 mm 1 mps 756 mmHg 98%
    05:00 +26°C° 0.8 mm 1 mps 757 mmHg 98%
    06:00 +26°C° 0.8 mm 1 mps 757 mmHg 98%
    07:00 +26°C° 0.8 mm 1 mps 757 mmHg 98%
    08:00 +26°C° 0.7 mm 1 mps 758 mmHg 96%
    09:00 +27°C° 0.7 mm 1 mps 758 mmHg 95%
    10:00 +27°C° 0.7 mm 1 mps 758 mmHg 93%
    11:00 +28°C° 0.4 mm 1 mps 758 mmHg 89%
    12:00 +29°C° 0.4 mm 1 mps 757 mmHg 85%
    13:00 +30°C° 0.4 mm 1 mps 757 mmHg 80%
    14:00 +29°C° 0.6 mm 1 mps 756 mmHg 84%
    15:00 +29°C° 0.6 mm 1 mps 756 mmHg 87%
    16:00 +29°C° 0.6 mm 1 mps 755 mmHg 90%
    17:00 +28°C° 0.2 mm 1 mps 756 mmHg 92%
    18:00 +27°C° 0.2 mm 1 mps 757 mmHg 94%
    19:00 +26°C° 0.2 mm 1 mps 757 mmHg 96%
    20:00 +26°C° 0.6 mm 1 mps 758 mmHg 96%
    21:00 +26°C° 0.6 mm 1 mps 758 mmHg 96%
    22:00 +26°C° 0.6 mm 1 mps 759 mmHg 96%
    23:00 +26°C° 0.4 mm 1 mps 758 mmHg 96%

    19 November, Monday

    Time Temperature Precipitation Wind Pressure Humidity
    00:00 +24°C° 0.4 mm 0 mps 758 mmHg 96%
    01:00 +24°C° 0.4 mm 0 mps 758 mmHg 96%
    02:00 +24°C° 0.1 mm 0 mps 757 mmHg 96%
    03:00 +26°C° 0.1 mm 1 mps 757 mmHg 97%
    04:00 +25°C° 0.1 mm 1 mps 756 mmHg 97%
    05:00 +26°C° 0 mm 1 mps 757 mmHg 96%
    06:00 +26°C° 0 mm 1 mps 757 mmHg 94%
    07:00 +27°C° 0 mm 1 mps 758 mmHg 93%
    08:00 +28°C° 0 mm 1 mps 758 mmHg 85%
    09:00 +30°C° 0 mm 1 mps 758 mmHg 77%
    10:00 +32°C° 0 mm 1 mps 758 mmHg 68%
    11:00 +31°C° 0.2 mm 1 mps 758 mmHg 71%
    12:00 +31°C° 0.2 mm 1 mps 757 mmHg 74%
    13:00 +31°C° 0.2 mm 1 mps 757 mmHg 77%
    14:00 +30°C° 0.2 mm 1 mps 756 mmHg 79%
    15:00 +30°C° 0.2 mm 1 mps 756 mmHg 81%
    16:00 +30°C° 0.2 mm 1 mps 755 mmHg 82%
    17:00 +29°C° 0.2 mm 1 mps 756 mmHg 86%
    18:00 +28°C° 0.2 mm 1 mps 757 mmHg 89%
    19:00 +25°C° 0.2 mm 0 mps 757 mmHg 93%
    20:00 +25°C° 0.4 mm 0 mps 758 mmHg 93%
    21:00 +24°C° 0.4 mm 0 mps 758 mmHg 94%
    22:00 +24°C° 0.4 mm 0 mps 759 mmHg 94%
    23:00 +24°C° 0.4 mm 0 mps 758 mmHg 95%

    20 November, Tuesday

    Time Temperature Precipitation Wind Pressure Humidity
    00:00 +24°C° 0.4 mm 0 mps 758 mmHg 95%
    01:00 +26°C° 0.4 mm 1 mps 757 mmHg 95%
    02:00 +24°C° 0.2 mm 0 mps 757 mmHg 96%
    03:00 +23°C° 0.2 mm 0 mps 757 mmHg 96%
    04:00 +23°C° 0.2 mm 0 mps 756 mmHg 96%
    05:00 +26°C° 0.4 mm 1 mps 757 mmHg 94%
    06:00 +27°C° 0.4 mm 1 mps 757 mmHg 91%
    07:00 +28°C° 0.4 mm 1 mps 758 mmHg 89%
    08:00 +29°C° 0.5 mm 1 mps 758 mmHg 81%
    09:00 +31°C° 0.5 mm 1 mps 758 mmHg 74%
    10:00 +32°C° 0.5 mm 1 mps 758 mmHg 67%
    11:00 +32°C° 0.5 mm 1 mps 757 mmHg 68%
    12:00 +32°C° 0.5 mm 2 mps 757 mmHg 68%
    13:00 +32°C° 0.5 mm 2 mps 756 mmHg 69%
    14:00 +32°C° 0.4 mm 2 mps 755 mmHg 72%
    15:00 +31°C° 0.4 mm 2 mps 755 mmHg 75%
    16:00 +30°C° 0.4 mm 2 mps 755 mmHg 78%
    17:00 +29°C° 0.6 mm 2 mps 756 mmHg 83%
    18:00 +28°C° 0.6 mm 1 mps 756 mmHg 88%
    19:00 +27°C° 0.6 mm 1 mps 757 mmHg 93%
    20:00 +27°C° 0.8 mm 1 mps 757 mmHg 93%
    21:00 +26°C° 0.8 mm 1 mps 758 mmHg 94%
    22:00 +26°C° 0.8 mm 1 mps 758 mmHg 95%
    23:00 +26°C° 0.4 mm 1 mps 757 mmHg 95%

    21 November, Wednesday

    Time Temperature Precipitation Wind Pressure Humidity
    00:00 +26°C° 0.4 mm 1 mps 757 mmHg 96%
    01:00 +26°C° 0.4 mm 1 mps 756 mmHg 96%
    02:00 +25°C° 0.6 mm 1 mps 756 mmHg 96%
    03:00 +25°C° 0.6 mm 1 mps 756 mmHg 96%
    04:00 +25°C° 0.6 mm 1 mps 756 mmHg 96%
    05:00 +26°C° 0 mm 1 mps 757 mmHg 94%
    06:00 +26°C° 0 mm 1 mps 757 mmHg 93%
    07:00 +27°C° 0 mm 1 mps 758 mmHg 91%
    08:00 +29°C° 0.1 mm 1 mps 758 mmHg 80%
    09:00 +31°C° 0.1 mm 1 mps 758 mmHg 69%
    10:00 +33°C° 0.1 mm 1 mps 757 mmHg 58%
    11:00 +34°C° 0.6 mm 2 mps 757 mmHg 63%
    12:00 +32°C° 0.6 mm 2 mps 756 mmHg 68%
    13:00 +33°C° 0.6 mm 3 mps 755 mmHg 73%
    14:00 +31°C° 0.9 mm 3 mps 755 mmHg 79%
    15:00 +30°C° 0.9 mm 2 mps 755 mmHg 85%
    16:00 +29°C° 0.9 mm 2 mps 755 mmHg 91%
    17:00 +28°C° 1.4 mm 2 mps 756 mmHg 93%
    18:00 +27°C° 1.4 mm 2 mps 757 mmHg 94%
    19:00 +26°C° 1.4 mm 2 mps 757 mmHg 96%
    20:00 +26°C° 1 mm 2 mps 757 mmHg 96%
    21:00 +26°C° 1 mm 2 mps 758 mmHg 96%
    22:00 +26°C° 1 mm 2 mps 758 mmHg 96%
    23:00 +25°C° 0.3 mm 2 mps 757 mmHg 96%
    Show more